Chino, CA

6:02 AM PDT on August 23, 2017 (GMT -0700)
Chino

Weather History for KCNO - November, 2012

Change the Weather History Date:

Sunday, November 11, 2012

  Actual Average Record
Temperature  
Mean Temperature 50 °F -  
Max Temperature 68 °F 70 °F 91 °F (2016)
Min Temperature 32 °F 42 °F 32 °F (2012)
Degree Days  
Heating Degree Days 15    
Moisture  
Dew Point 24 °F    
Average Humidity 46    
Maximum Humidity 86    
Minimum Humidity 13    
Precipitation  
Precipitation 0.00 in - - ()
Sea Level Pressure  
Sea Level Pressure 30.25 in    
Wind  
Wind Speed 4 mph (ENE)    
Max Wind Speed 17 mph    
Max Gust Speed 24 mph    
Visibility 8 miles    
Events      
Averages and records for this station are not official NWS values.
T = Trace of Precipitation, MM = Missing Value Source: NWS Daily Summary

Daily Weather History Graph

Daily Weather History Graph

Search for Another Location

Airport or City:

Trip Planner

Search our weather history database for the weather conditions in past years. The results will help you decide how hot, cold, wet, or windy it might be!

Date:

Astronomy

Nov. 11, 2012 Rise Set
Actual Time 6:19 AM PST 4:49 PM PST
Civil Twilight 5:53 AM PST 5:15 PM PST
Nautical Twilight 5:23 AM PST 5:45 PM PST
Astronomical Twilight 4:53 AM PST 6:15 PM PST
Moon 3:44 AM PST (11/11) 3:11 PM PST (11/11)
Length of Visible Light 11h 22m
Length of Day
10h 29m
Waning Crescent, 6% of the Moon is Illuminated
Nov 11
Waning Crescent
Nov 13
New
Nov 20
First Quarter
Nov 28
Full
Dec 6
Last Quarter

Hourly Weather History & Observations

Time (PST) Temp. Windchill Dew Point Humidity Pressure Visibility Wind Dir Wind Speed Gust Speed Precip Events Conditions
12:53 AM 37.0 °F - 33.1 °F 86% 30.17 in 7.0 mi Calm Calm - N/A   Clear
1:53 AM 39.0 °F 36.8 °F 32.0 °F 76% 30.18 in 7.0 mi ENE 3.5 mph - N/A   Clear
2:53 AM 39.9 °F 36.7 °F 32.0 °F 73% 30.19 in 7.0 mi East 4.6 mph - N/A   Clear
3:53 AM 37.9 °F - 30.9 °F 76% 30.21 in 7.0 mi Calm Calm - N/A   Clear
4:53 AM 34.0 °F - 26.1 °F 73% 30.22 in 8.0 mi Calm Calm - N/A   Clear
5:53 AM 32.0 °F - 27.0 °F 82% 30.25 in 7.0 mi Calm Calm - N/A   Clear
6:53 AM 35.1 °F 32.2 °F 28.0 °F 76% 30.26 in 10.0 mi NNE 3.5 mph - N/A   Clear
7:53 AM 46.0 °F - 28.9 °F 51% 30.27 in 7.0 mi Calm Calm - N/A   Clear
8:53 AM 51.1 °F - 30.0 °F 44% 30.30 in 10.0 mi Calm Calm - N/A   Clear
10:53 AM 64.0 °F - 19.0 °F 18% 30.27 in 10.0 mi East 13.8 mph 21.9 mph N/A   Partly Cloudy
11:53 AM 66.0 °F - 17.1 °F 15% 30.26 in 10.0 mi East 17.3 mph 24.2 mph N/A   Clear
12:53 PM 66.0 °F - 15.1 °F 14% 30.25 in 10.0 mi East 12.7 mph 16.1 mph N/A   Partly Cloudy
1:53 PM 68.0 °F - 15.1 °F 13% 30.23 in 10.0 mi East 12.7 mph 16.1 mph N/A   Partly Cloudy
2:53 PM 66.9 °F - 15.1 °F 14% 30.22 in 10.0 mi East 12.7 mph - N/A   Partly Cloudy
3:53 PM 66.0 °F - 12.9 °F 13% 30.22 in 7.0 mi East 11.5 mph 20.7 mph N/A   Partly Cloudy
4:53 PM 62.1 °F - 14.0 °F 15% 30.23 in 10.0 mi East 8.1 mph - N/A   Clear
5:53 PM 55.0 °F - 19.9 °F 25% 30.25 in 8.0 mi Calm Calm - N/A   Clear
6:53 PM 50.0 °F - 25.0 °F 38% 30.28 in 10.0 mi North 4.6 mph - N/A   Clear
7:53 PM 46.9 °F - 28.0 °F 48% 30.30 in 10.0 mi North 3.5 mph - N/A   Clear
8:53 PM 42.1 °F 39.2 °F 30.9 °F 65% 30.31 in 7.0 mi North 4.6 mph - N/A   Clear
9:53 PM 44.1 °F - 30.0 °F 58% 30.30 in 7.0 mi Calm Calm - N/A   Clear
10:53 PM 43.0 °F 41.3 °F 28.9 °F 58% 30.29 in 7.0 mi North 3.5 mph - N/A   Clear
11:53 PM 50.0 °F - 19.0 °F 29% 30.26 in 8.0 mi East 9.2 mph - N/A   Clear